Time,TemperatureF,DewpointF,PressureIn,WindDirection,WindDirectionDegrees,WindSpeedMPH,WindSpeedGustMPH,Humidity,HourlyPrecipIn,Conditions,Clouds,dailyrainin,SolarRadiationWatts/m^2,SoftwareType,DateUTC
2013-06-05 00:02:00,82.6,18.0,-100.00,South,173,1.0,9.0,9,0.00,,,0.00,0.0,meteohub,2013-06-05 04:02:00,
2013-06-05 00:07:00,82.8,18.1,-100.00,SSE,167,0.0,9.0,9,0.00,,,0.00,0.0,meteohub,2013-06-05 04:07:00,
2013-06-05 00:12:00,82.6,18.0,-100.00,SE,136,3.0,9.0,9,0.00,,,0.00,0.0,meteohub,2013-06-05 04:12:00,
2013-06-05 00:17:00,82.8,18.1,-100.00,SSE,161,2.0,7.0,9,0.00,,,0.00,0.0,meteohub,2013-06-05 04:17:00,
2013-06-05 00:22:00,82.8,18.1,-100.00,South,187,3.0,7.0,9,0.00,,,0.00,0.0,meteohub,2013-06-05 04:22:00,
2013-06-05 00:27:00,82.8,18.1,-100.00,SSE,152,1.0,7.0,9,0.00,,,0.00,0.0,meteohub,2013-06-05 04:27:00,
2013-06-05 00:32:00,82.6,18.0,-100.00,South,169,0.0,6.0,9,0.00,,,0.00,0.0,meteohub,2013-06-05 04:32:00,
2013-06-05 00:37:00,82.6,18.0,-100.00,SSE,148,3.0,6.0,9,0.00,,,0.00,0.0,meteohub,2013-06-05 04:37:00,
2013-06-05 00:42:00,82.8,20.7,-100.00,SE,132,3.0,10.0,10,0.00,,,0.00,0.0,meteohub,2013-06-05 04:42:00,
2013-06-05 00:47:00,82.8,20.7,-100.00,SSE,156,1.0,10.0,10,0.00,,,0.00,0.0,meteohub,2013-06-05 04:47:00,
2013-06-05 00:52:00,82.8,20.7,-100.00,South,173,2.0,10.0,10,0.00,,,0.00,0.0,meteohub,2013-06-05 04:52:00,
2013-06-05 00:57:00,82.8,18.1,-100.00,SSE,166,0.0,6.0,9,0.00,,,0.00,0.0,meteohub,2013-06-05 04:57:00,
2013-06-05 01:02:00,82.8,18.1,-100.00,South,190,3.0,6.0,9,0.00,,,0.00,0.0,meteohub,2013-06-05 05:02:00,
2013-06-05 01:12:00,82.8,18.1,-100.00,South,175,4.0,7.0,9,0.00,,,0.00,0.0,meteohub,2013-06-05 05:12:00,
2013-06-05 01:17:00,82.6,18.0,-100.00,SSE,165,2.0,7.0,9,0.00,,,0.00,0.0,meteohub,2013-06-05 05:17:00,
2013-06-05 01:22:00,82.6,18.0,-100.00,ESE,119,4.0,7.0,9,0.00,,,0.00,0.0,meteohub,2013-06-05 05:22:00,
2013-06-05 01:27:00,82.8,18.1,-100.00,SE,130,6.0,7.0,9,0.00,,,0.00,0.0,meteohub,2013-06-05 05:27:00,
2013-06-05 01:32:00,82.8,18.1,-100.00,South,174,0.0,9.0,9,0.00,,,0.00,0.0,meteohub,2013-06-05 05:32:00,
2013-06-05 01:37:00,82.6,18.0,-100.00,South,179,3.0,9.0,9,0.00,,,0.00,0.0,meteohub,2013-06-05 05:37:00,
2013-06-05 01:42:00,82.8,18.1,-100.00,SE,136,5.0,7.0,9,0.00,,,0.00,0.0,meteohub,2013-06-05 05:42:00,
2013-06-05 01:52:00,82.6,18.0,-100.00,South,169,4.0,6.0,9,0.00,,,0.00,0.0,meteohub,2013-06-05 05:52:00,
2013-06-05 01:57:00,82.6,18.0,-100.00,South,173,1.0,9.0,9,0.00,,,0.00,0.0,meteohub,2013-06-05 05:57:00,
2013-06-05 02:02:00,82.8,18.1,-100.00,SSE,165,0.0,9.0,9,0.00,,,0.00,0.0,meteohub,2013-06-05 06:02:00,
2013-06-05 02:07:00,82.6,18.0,-100.00,South,173,1.0,9.0,9,0.00,,,0.00,0.0,meteohub,2013-06-05 06:07:00,
2013-06-05 02:17:00,82.2,17.8,-100.00,South,174,1.0,7.0,9,0.00,,,0.00,0.0,meteohub,2013-06-05 06:17:00,
2013-06-05 02:22:00,82.2,17.8,-100.00,South,174,0.0,12.0,9,0.00,,,0.00,0.0,meteohub,2013-06-05 06:22:00,
2013-06-05 02:27:00,82.4,18.0,-100.00,South,182,5.0,12.0,9,0.00,,,0.00,0.0,meteohub,2013-06-05 06:27:00,
2013-06-05 02:32:00,82.2,17.8,-100.00,SSE,168,3.0,7.0,9,0.00,,,0.00,0.0,meteohub,2013-06-05 06:32:00,
2013-06-05 02:37:00,82.2,20.3,-100.00,South,191,3.0,7.0,10,0.00,,,0.00,0.0,meteohub,2013-06-05 06:37:00,
2013-06-05 02:42:00,82.2,20.3,-100.00,SSE,165,3.0,7.0,10,0.00,,,0.00,0.0,meteohub,2013-06-05 06:42:00,
2013-06-05 02:47:00,82.0,20.1,-100.00,South,175,4.0,7.0,10,0.00,,,0.00,0.0,meteohub,2013-06-05 06:47:00,
2013-06-05 02:52:00,82.0,20.1,-100.00,SSW,193,4.0,7.0,10,0.00,,,0.00,0.0,meteohub,2013-06-05 06:52:00,
2013-06-05 02:57:00,82.0,20.1,-100.00,SSW,201,3.0,9.0,10,0.00,,,0.00,0.0,meteohub,2013-06-05 06:57:00,
2013-06-05 03:02:00,82.0,17.6,-100.00,SSE,164,5.0,9.0,9,0.00,,,0.00,0.0,meteohub,2013-06-05 07:02:00,
2013-06-05 03:07:00,82.2,17.8,-100.00,South,170,3.0,9.0,9,0.00,,,0.00,0.0,meteohub,2013-06-05 07:07:00,
2013-06-05 03:12:00,82.0,17.6,-100.00,South,175,0.0,9.0,9,0.00,,,0.00,0.0,meteohub,2013-06-05 07:12:00,
2013-06-05 03:17:00,82.2,17.8,-100.00,South,180,3.0,10.0,9,0.00,,,0.00,0.0,meteohub,2013-06-05 07:17:00,
2013-06-05 03:22:00,82.2,17.8,-100.00,South,180,9.0,10.0,9,0.00,,,0.00,0.0,meteohub,2013-06-05 07:22:00,
2013-06-05 03:27:00,82.2,17.8,-100.00,South,187,7.0,10.0,9,0.00,,,0.00,0.0,meteohub,2013-06-05 07:27:00,
2013-06-05 03:32:00,82.4,18.0,-100.00,South,173,3.0,10.0,9,0.00,,,0.00,0.0,meteohub,2013-06-05 07:32:00,
2013-06-05 03:37:00,82.4,18.0,-100.00,SSE,150,2.0,10.0,9,0.00,,,0.00,0.0,meteohub,2013-06-05 07:37:00,
2013-06-05 03:42:00,82.2,17.8,-100.00,SSE,161,0.0,8.0,9,0.00,,,0.00,0.0,meteohub,2013-06-05 07:42:00,
2013-06-05 03:47:00,82.6,18.0,-100.00,South,173,0.0,8.0,9,0.00,,,0.00,0.0,meteohub,2013-06-05 07:47:00,
2013-06-05 03:57:00,82.2,17.8,-100.00,SSE,168,4.0,8.0,9,0.00,,,0.00,0.0,meteohub,2013-06-05 07:57:00,
2013-06-05 04:02:00,82.2,20.3,-100.00,SE,130,5.0,8.0,10,0.00,,,0.00,0.0,meteohub,2013-06-05 08:02:00,
2013-06-05 04:07:00,82.4,18.0,-100.00,SSE,152,4.0,8.0,9,0.00,,,0.00,0.0,meteohub,2013-06-05 08:07:00,
2013-06-05 04:12:00,82.8,20.7,-100.00,South,173,2.0,8.0,10,0.00,,,0.00,0.0,meteohub,2013-06-05 08:12:00,
2013-06-05 04:17:00,82.6,20.5,-100.00,South,169,3.0,7.0,10,0.00,,,0.00,0.0,meteohub,2013-06-05 08:17:00,
2013-06-05 04:22:00,82.2,20.3,-100.00,South,170,0.0,7.0,10,0.00,,,0.00,0.0,meteohub,2013-06-05 08:22:00,
2013-06-05 04:27:00,82.2,20.3,-100.00,South,173,0.0,6.0,10,0.00,,,0.00,0.0,meteohub,2013-06-05 08:27:00,
2013-06-05 04:32:00,82.0,20.1,-100.00,SSE,165,0.0,5.0,10,0.00,,,0.00,0.0,meteohub,2013-06-05 08:32:00,
2013-06-05 04:37:00,82.2,20.3,-100.00,South,180,1.0,5.0,10,0.00,,,0.00,0.0,meteohub,2013-06-05 08:37:00,
2013-06-05 04:42:00,82.2,20.3,-100.00,SSE,162,0.0,7.0,10,0.00,,,0.00,0.0,meteohub,2013-06-05 08:42:00,
2013-06-05 04:47:00,82.2,20.3,-100.00,SSE,161,2.0,7.0,10,0.00,,,0.00,0.0,meteohub,2013-06-05 08:47:00,
2013-06-05 04:52:00,82.0,20.1,-100.00,SSE,161,0.0,5.0,10,0.00,,,0.00,0.0,meteohub,2013-06-05 08:52:00,
2013-06-05 04:57:00,82.0,20.1,-100.00,South,173,2.0,5.0,10,0.00,,,0.00,0.0,meteohub,2013-06-05 08:57:00,
2013-06-05 05:02:00,82.0,20.1,-100.00,SSE,167,2.0,5.0,10,0.00,,,0.00,0.0,meteohub,2013-06-05 09:02:00,
2013-06-05 05:07:00,82.2,20.3,-100.00,SSE,167,2.0,5.0,10,0.00,,,0.00,0.0,meteohub,2013-06-05 09:07:00,
2013-06-05 05:17:00,82.0,17.6,-100.00,SSE,166,0.0,4.0,9,0.00,,,0.00,0.0,meteohub,2013-06-05 09:17:00,
2013-06-05 05:22:00,82.0,17.6,-100.00,SSE,167,1.0,4.0,9,0.00,,,0.00,0.0,meteohub,2013-06-05 09:22:00,
2013-06-05 05:27:00,82.0,17.6,-100.00,SSE,167,0.0,3.0,9,0.00,,,0.00,0.0,meteohub,2013-06-05 09:27:00,
2013-06-05 05:32:00,81.9,17.4,-100.00,SSE,167,0.0,3.0,9,0.00,,,0.00,0.0,meteohub,2013-06-05 09:32:00,
2013-06-05 05:37:00,81.9,17.4,-100.00,SSE,166,0.0,3.0,9,0.00,,,0.00,0.0,meteohub,2013-06-05 09:37:00,
2013-06-05 05:42:00,81.9,17.4,-100.00,SSE,165,2.0,4.0,9,0.00,,,0.00,0.0,meteohub,2013-06-05 09:42:00,
2013-06-05 05:47:00,81.9,17.4,-100.00,SSE,167,2.0,4.0,9,0.00,,,0.00,0.0,meteohub,2013-06-05 09:47:00,
2013-06-05 05:52:00,81.9,17.4,-100.00,South,171,3.0,4.0,9,0.00,,,0.00,0.0,meteohub,2013-06-05 09:52:00,
2013-06-05 05:57:00,82.0,17.6,-100.00,SE,135,0.0,4.0,9,0.00,,,0.00,0.0,meteohub,2013-06-05 09:57:00,
2013-06-05 06:02:00,82.0,17.6,-100.00,South,172,0.0,5.0,9,0.00,,,0.00,0.0,meteohub,2013-06-05 10:02:00,
2013-06-05 06:07:00,81.9,17.4,-100.00,SSW,194,0.0,5.0,9,0.00,,,0.00,0.0,meteohub,2013-06-05 10:07:00,
2013-06-05 06:12:00,81.9,17.4,-100.00,SSE,165,2.0,5.0,9,0.00,,,0.00,0.0,meteohub,2013-06-05 10:12:00,
2013-06-05 06:17:00,81.9,17.4,-100.00,SSE,167,3.0,5.0,9,0.00,,,0.00,0.0,meteohub,2013-06-05 10:17:00,
2013-06-05 06:27:00,81.7,19.8,-100.00,SSE,167,2.0,5.0,10,0.00,,,0.00,0.0,meteohub,2013-06-05 10:27:00,
2013-06-05 06:32:00,81.7,19.8,-100.00,SSE,161,3.0,6.0,10,0.00,,,0.00,0.0,meteohub,2013-06-05 10:32:00,
2013-06-05 06:37:00,81.5,19.8,-100.00,SSE,163,0.0,6.0,10,0.00,,,0.00,0.0,meteohub,2013-06-05 10:37:00,
2013-06-05 06:47:00,81.7,19.8,-100.00,SSE,165,4.0,6.0,10,0.00,,,0.00,7.0,meteohub,2013-06-05 10:47:00,
2013-06-05 06:52:00,81.9,17.4,-100.00,South,177,2.0,6.0,9,0.00,,,0.00,11.0,meteohub,2013-06-05 10:52:00,
2013-06-05 06:57:00,81.9,17.4,-100.00,South,171,4.0,7.0,9,0.00,,,0.00,14.0,meteohub,2013-06-05 10:57:00,
2013-06-05 07:02:00,82.0,17.6,-100.00,South,176,4.0,6.0,9,0.00,,,0.00,18.0,meteohub,2013-06-05 11:02:00,
2013-06-05 07:07:00,82.6,18.0,-100.00,SSE,157,3.0,7.0,9,0.00,,,0.00,19.0,meteohub,2013-06-05 11:07:00,
2013-06-05 07:17:00,82.2,17.8,-100.00,South,175,3.0,7.0,9,0.00,,,0.00,26.0,meteohub,2013-06-05 11:17:00,
2013-06-05 07:22:00,82.2,17.8,-100.00,SSE,152,6.0,7.0,9,0.00,,,0.00,30.0,meteohub,2013-06-05 11:22:00,
2013-06-05 07:27:00,82.2,17.8,-100.00,SSE,159,3.0,8.0,9,0.00,,,0.00,35.0,meteohub,2013-06-05 11:27:00,
2013-06-05 07:32:00,82.4,18.0,-100.00,ESE,123,5.0,8.0,9,0.00,,,0.00,40.0,meteohub,2013-06-05 11:32:00,
2013-06-05 07:37:00,82.6,18.0,-100.00,South,181,5.0,8.0,9,0.00,,,0.00,42.0,meteohub,2013-06-05 11:37:00,
2013-06-05 07:42:00,82.8,18.1,-100.00,South,173,1.0,8.0,9,0.00,,,0.00,46.0,meteohub,2013-06-05 11:42:00,
2013-06-05 07:47:00,82.6,18.0,-100.00,South,171,1.0,8.0,9,0.00,,,0.00,53.0,meteohub,2013-06-05 11:47:00,
2013-06-05 07:57:00,82.6,18.0,-100.00,SSE,166,0.0,9.0,9,0.00,,,0.00,70.0,meteohub,2013-06-05 11:57:00,
2013-06-05 08:02:00,82.8,18.1,-100.00,SSE,160,1.0,9.0,9,0.00,,,0.00,83.0,meteohub,2013-06-05 12:02:00,
2013-06-05 08:07:00,82.9,18.3,-100.00,SSE,157,0.0,9.0,9,0.00,,,0.00,91.0,meteohub,2013-06-05 12:07:00,
2013-06-05 08:12:00,82.8,18.1,-100.00,SSE,166,0.0,7.0,9,0.00,,,0.00,100.0,meteohub,2013-06-05 12:12:00,
2013-06-05 08:17:00,82.9,18.3,-100.00,South,172,6.0,6.0,9,0.00,,,0.00,107.0,meteohub,2013-06-05 12:17:00,
2013-06-05 08:22:00,82.9,18.3,-100.00,South,186,5.0,6.0,9,0.00,,,0.00,114.0,meteohub,2013-06-05 12:22:00,
2013-06-05 08:27:00,83.1,18.5,-100.00,South,181,2.0,7.0,9,0.00,,,0.00,118.0,meteohub,2013-06-05 12:27:00,
2013-06-05 08:32:00,83.3,18.5,-100.00,SSE,153,2.0,7.0,9,0.00,,,0.00,116.0,meteohub,2013-06-05 12:32:00,
2013-06-05 08:37:00,83.1,18.5,-100.00,South,188,4.0,7.0,9,0.00,,,0.00,116.0,meteohub,2013-06-05 12:37:00,
2013-06-05 08:42:00,82.9,18.3,-100.00,SE,138,3.0,9.0,9,0.00,,,0.00,116.0,meteohub,2013-06-05 12:42:00,
2013-06-05 08:47:00,82.9,18.3,-100.00,SSE,165,6.0,9.0,9,0.00,,,0.00,127.0,meteohub,2013-06-05 12:47:00,
2013-06-05 08:52:00,82.9,18.3,-100.00,SSE,163,1.0,9.0,9,0.00,,,0.00,144.0,meteohub,2013-06-05 12:52:00,
2013-06-05 08:57:00,82.9,18.3,-100.00,South,179,0.0,7.0,9,0.00,,,0.00,146.0,meteohub,2013-06-05 12:57:00,
2013-06-05 09:02:00,82.9,18.3,-100.00,South,180,0.0,7.0,9,0.00,,,0.00,141.0,meteohub,2013-06-05 13:02:00,
2013-06-05 09:12:00,83.1,18.5,-100.00,South,175,2.0,7.0,9,0.00,,,0.00,139.0,meteohub,2013-06-05 13:12:00,
2013-06-05 09:17:00,83.1,18.5,-100.00,SSE,161,0.0,7.0,9,0.00,,,0.00,146.0,meteohub,2013-06-05 13:17:00,
2013-06-05 09:22:00,83.1,18.5,-100.00,South,190,3.0,6.0,9,0.00,,,0.00,155.0,meteohub,2013-06-05 13:22:00,
2013-06-05 09:27:00,83.5,18.7,-100.00,South,175,1.0,6.0,9,0.00,,,0.00,165.0,meteohub,2013-06-05 13:27:00,
2013-06-05 09:32:00,83.5,18.7,-100.00,South,184,0.0,6.0,9,0.00,,,0.00,179.0,meteohub,2013-06-05 13:32:00,
2013-06-05 09:42:00,83.7,18.9,-100.00,SSE,154,4.0,6.0,9,0.00,,,0.00,200.0,meteohub,2013-06-05 13:42:00,
2013-06-05 09:47:00,83.7,18.9,-100.00,SSE,166,4.0,6.0,9,0.00,,,0.00,207.0,meteohub,2013-06-05 13:47:00,
2013-06-05 09:52:00,83.7,18.9,-100.00,SSW,196,5.0,6.0,9,0.00,,,0.00,220.0,meteohub,2013-06-05 13:52:00,
2013-06-05 09:57:00,84.0,19.0,-100.00,SE,133,0.0,6.0,9,0.00,,,0.00,232.0,meteohub,2013-06-05 13:57:00,
2013-06-05 10:02:00,84.0,19.0,-100.00,South,175,2.0,6.0,9,0.00,,,0.00,246.0,meteohub,2013-06-05 14:02:00,
2013-06-05 10:07:00,84.0,19.0,-100.00,SSE,168,0.0,6.0,9,0.00,,,0.00,260.0,meteohub,2013-06-05 14:07:00,
2013-06-05 10:12:00,84.0,19.0,-100.00,South,171,2.0,6.0,9,0.00,,,0.00,269.0,meteohub,2013-06-05 14:12:00,
2013-06-05 10:17:00,84.4,19.4,-100.00,SSE,155,1.0,6.0,9,0.00,,,0.00,276.0,meteohub,2013-06-05 14:17:00,
2013-06-05 10:22:00,84.4,19.4,-100.00,South,184,4.0,6.0,9,0.00,,,0.00,287.0,meteohub,2013-06-05 14:22:00,
2013-06-05 10:27:00,84.4,19.4,-100.00,South,171,1.0,7.0,9,0.00,,,0.00,299.0,meteohub,2013-06-05 14:27:00,
2013-06-05 10:32:00,84.7,19.6,-100.00,SSW,202,2.0,7.0,9,0.00,,,0.00,299.0,meteohub,2013-06-05 14:32:00,
2013-06-05 10:37:00,84.6,19.6,-100.00,SSE,167,2.0,6.0,9,0.00,,,0.00,274.0,meteohub,2013-06-05 14:37:00,
2013-06-05 10:42:00,84.6,19.6,-100.00,SSW,209,3.0,7.0,9,0.00,,,0.00,272.0,meteohub,2013-06-05 14:42:00,
2013-06-05 10:52:00,84.9,19.8,-100.00,SSW,205,3.0,7.0,9,0.00,,,0.00,306.0,meteohub,2013-06-05 14:52:00,
2013-06-05 10:57:00,84.7,22.1,-100.00,SW,215,3.0,7.0,10,0.00,,,0.00,320.0,meteohub,2013-06-05 14:57:00,
2013-06-05 11:07:00,85.1,22.5,-100.00,South,171,0.0,7.0,10,0.00,,,0.00,327.0,meteohub,2013-06-05 15:07:00,
2013-06-05 11:12:00,85.3,22.6,-100.00,South,186,6.0,7.0,10,0.00,,,0.00,320.0,meteohub,2013-06-05 15:12:00,
2013-06-05 11:17:00,85.3,20.1,-100.00,SE,131,3.0,7.0,9,0.00,,,0.00,304.0,meteohub,2013-06-05 15:17:00,
2013-06-05 11:22:00,85.1,22.5,-100.00,SSE,168,3.0,7.0,10,0.00,,,0.00,281.0,meteohub,2013-06-05 15:22:00,
2013-06-05 11:27:00,84.9,22.3,-100.00,SSE,164,1.0,7.0,10,0.00,,,0.00,257.0,meteohub,2013-06-05 15:27:00,
2013-06-05 11:32:00,84.9,22.3,-100.00,South,182,3.0,8.0,10,0.00,,,0.00,234.0,meteohub,2013-06-05 15:32:00,
2013-06-05 11:37:00,84.9,22.3,-100.00,SSW,195,3.0,8.0,10,0.00,,,0.00,243.0,meteohub,2013-06-05 15:37:00,
2013-06-05 11:42:00,84.9,22.3,-100.00,South,182,4.0,9.0,10,0.00,,,0.00,272.0,meteohub,2013-06-05 15:42:00,
2013-06-05 11:47:00,85.1,22.5,-100.00,SSE,153,1.0,9.0,10,0.00,,,0.00,295.0,meteohub,2013-06-05 15:47:00,
2013-06-05 11:52:00,85.1,19.9,-100.00,SSE,158,3.0,9.0,9,0.00,,,0.00,290.0,meteohub,2013-06-05 15:52:00,
2013-06-05 11:57:00,85.1,19.9,-100.00,SSW,205,3.0,7.0,9,0.00,,,0.00,299.0,meteohub,2013-06-05 15:57:00,
2013-06-05 12:02:00,85.1,19.9,-100.00,South,182,5.0,6.0,9,0.00,,,0.00,294.0,meteohub,2013-06-05 16:02:00,
2013-06-05 12:07:00,84.9,19.8,-100.00,South,172,3.0,6.0,9,0.00,,,0.00,308.0,meteohub,2013-06-05 16:07:00,
2013-06-05 12:12:00,84.7,19.6,-100.00,SSE,151,3.0,8.0,9,0.00,,,0.00,322.0,meteohub,2013-06-05 16:12:00,
2013-06-05 12:17:00,84.7,19.6,-100.00,SE,133,4.0,8.0,9,0.00,,,0.00,287.0,meteohub,2013-06-05 16:17:00,
2013-06-05 12:22:00,84.7,19.6,-100.00,SE,138,4.0,8.0,9,0.00,,,0.00,264.0,meteohub,2013-06-05 16:22:00,
2013-06-05 12:27:00,84.7,19.6,-100.00,ESE,111,0.0,8.0,9,0.00,,,0.00,230.0,meteohub,2013-06-05 16:27:00,
2013-06-05 12:32:00,84.6,19.6,-100.00,SE,130,3.0,8.0,9,0.00,,,0.00,209.0,meteohub,2013-06-05 16:32:00,
2013-06-05 12:37:00,84.4,19.4,-100.00,South,184,4.0,7.0,9,0.00,,,0.00,206.0,meteohub,2013-06-05 16:37:00,
2013-06-05 12:42:00,84.0,19.0,-100.00,South,182,4.0,7.0,9,0.00,,,0.00,202.0,meteohub,2013-06-05 16:42:00,
2013-06-05 12:47:00,83.8,19.0,-100.00,SSW,211,0.0,7.0,9,0.00,,,0.00,183.0,meteohub,2013-06-05 16:47:00,
2013-06-05 12:57:00,83.5,18.7,-100.00,SSE,160,2.0,6.0,9,0.01,,,0.01,155.0,meteohub,2013-06-05 16:57:00,
2013-06-05 13:02:00,82.9,20.8,-100.00,SSE,149,2.0,5.0,10,0.01,,,0.01,162.0,meteohub,2013-06-05 17:02:00,
2013-06-05 13:07:00,82.9,20.8,-100.00,SE,126,0.0,5.0,10,0.01,,,0.01,174.0,meteohub,2013-06-05 17:07:00,
2013-06-05 13:12:00,82.8,20.7,-100.00,SE,130,0.0,5.0,10,0.01,,,0.01,186.0,meteohub,2013-06-05 17:12:00,
2013-06-05 13:17:00,82.8,20.7,-100.00,SSE,161,0.0,4.0,10,0.02,,,0.02,200.0,meteohub,2013-06-05 17:17:00,
2013-06-05 13:22:00,82.8,22.8,-100.00,SE,145,2.0,5.0,11,0.02,,,0.02,209.0,meteohub,2013-06-05 17:22:00,
2013-06-05 13:27:00,82.8,22.8,-100.00,SSE,158,2.0,5.0,11,0.02,,,0.02,223.0,meteohub,2013-06-05 17:27:00,
2013-06-05 13:32:00,82.6,22.8,-100.00,SSE,164,0.0,5.0,11,0.02,,,0.02,239.0,meteohub,2013-06-05 17:32:00,
2013-06-05 13:37:00,82.8,22.8,-100.00,SSE,155,0.0,5.0,11,0.03,,,0.03,244.0,meteohub,2013-06-05 17:37:00,
2013-06-05 13:42:00,82.8,22.8,-100.00,SSE,157,0.0,5.0,11,0.03,,,0.03,267.0,meteohub,2013-06-05 17:42:00,
2013-06-05 13:47:00,82.8,22.8,-100.00,SSE,164,0.0,6.0,11,0.03,,,0.03,290.0,meteohub,2013-06-05 17:47:00,
2013-06-05 13:57:00,82.9,20.8,-100.00,South,176,0.0,7.0,10,0.02,,,0.03,325.0,meteohub,2013-06-05 17:57:00,
2013-06-05 14:07:00,83.1,20.8,-100.00,SSW,210,3.0,9.0,10,0.02,,,0.03,341.0,meteohub,2013-06-05 18:07:00,
2013-06-05 14:12:00,83.5,21.2,-100.00,South,176,4.0,9.0,10,0.02,,,0.03,369.0,meteohub,2013-06-05 18:12:00,
2013-06-05 14:22:00,83.7,21.4,-100.00,SSE,149,6.0,7.0,10,0.01,,,0.03,401.0,meteohub,2013-06-05 18:22:00,
2013-06-05 14:27:00,83.8,19.0,-100.00,SSW,196,5.0,9.0,9,0.01,,,0.03,411.0,meteohub,2013-06-05 18:27:00,
2013-06-05 14:32:00,84.4,19.4,-100.00,South,175,3.0,9.0,9,0.01,,,0.03,424.0,meteohub,2013-06-05 18:32:00,
2013-06-05 14:37:00,84.6,19.6,-100.00,SE,146,3.0,9.0,9,0.00,,,0.03,422.0,meteohub,2013-06-05 18:37:00,
2013-06-05 14:42:00,84.6,19.6,-100.00,South,180,5.0,9.0,9,0.00,,,0.03,388.0,meteohub,2013-06-05 18:42:00,
2013-06-05 14:47:00,84.7,19.6,-100.00,South,176,5.0,9.0,9,0.00,,,0.03,332.0,meteohub,2013-06-05 18:47:00,
2013-06-05 14:52:00,84.9,19.8,-100.00,SSE,160,0.0,9.0,9,0.00,,,0.03,339.0,meteohub,2013-06-05 18:52:00,
2013-06-05 14:57:00,84.7,19.6,-100.00,South,179,3.0,8.0,9,0.00,,,0.03,360.0,meteohub,2013-06-05 18:57:00,
2013-06-05 15:02:00,84.9,19.8,-100.00,South,185,4.0,8.0,9,0.00,,,0.03,350.0,meteohub,2013-06-05 19:02:00,
2013-06-05 15:07:00,85.1,22.5,-100.00,SSE,159,4.0,8.0,10,0.00,,,0.03,355.0,meteohub,2013-06-05 19:07:00,
2013-06-05 15:12:00,84.9,22.3,-100.00,South,187,3.0,9.0,10,0.00,,,0.03,369.0,meteohub,2013-06-05 19:12:00,
2013-06-05 15:17:00,85.1,22.5,-100.00,SSE,155,3.0,9.0,10,0.00,,,0.03,385.0,meteohub,2013-06-05 19:17:00,
2013-06-05 15:27:00,85.3,22.6,-100.00,SSE,163,3.0,10.0,10,0.00,,,0.03,369.0,meteohub,2013-06-05 19:27:00,
2013-06-05 15:32:00,85.5,22.6,-100.00,SSE,155,6.0,10.0,10,0.00,,,0.03,367.0,meteohub,2013-06-05 19:32:00,
2013-06-05 15:37:00,85.3,22.6,-100.00,South,169,0.0,11.0,10,0.00,,,0.03,362.0,meteohub,2013-06-05 19:37:00,
2013-06-05 15:42:00,85.5,25.0,-100.00,SSW,194,6.0,11.0,11,0.00,,,0.03,334.0,meteohub,2013-06-05 19:42:00,
2013-06-05 15:52:00,85.3,22.6,-100.00,ESE,104,0.0,7.0,10,0.00,,,0.03,320.0,meteohub,2013-06-05 19:52:00,
2013-06-05 15:57:00,85.3,22.6,-100.00,SE,130,6.0,7.0,10,0.00,,,0.03,308.0,meteohub,2013-06-05 19:57:00,
2013-06-05 16:07:00,85.3,24.8,-100.00,SE,126,2.0,11.0,11,0.00,,,0.03,288.0,meteohub,2013-06-05 20:07:00,
2013-06-05 16:12:00,85.3,22.6,-100.00,South,181,0.0,9.0,10,0.00,,,0.03,283.0,meteohub,2013-06-05 20:12:00,
2013-06-05 16:17:00,85.3,22.6,-100.00,WSW,241,0.0,9.0,10,0.00,,,0.03,278.0,meteohub,2013-06-05 20:17:00,
2013-06-05 16:27:00,84.9,24.6,-100.00,SSW,196,7.0,7.0,11,0.00,,,0.03,290.0,meteohub,2013-06-05 20:27:00,
2013-06-05 16:37:00,84.9,22.3,-100.00,SSW,206,4.0,8.0,10,0.00,,,0.03,288.0,meteohub,2013-06-05 20:37:00,
2013-06-05 16:42:00,85.1,22.5,-100.00,SSW,199,4.0,8.0,10,0.00,,,0.03,267.0,meteohub,2013-06-05 20:42:00,
2013-06-05 16:47:00,85.1,22.5,-100.00,South,186,2.0,7.0,10,0.00,,,0.03,255.0,meteohub,2013-06-05 20:47:00,
2013-06-05 16:52:00,85.3,22.6,-100.00,SW,232,4.0,7.0,10,0.00,,,0.03,251.0,meteohub,2013-06-05 20:52:00,
2013-06-05 16:57:00,85.5,22.6,-100.00,South,175,2.0,9.0,10,0.00,,,0.03,236.0,meteohub,2013-06-05 20:57:00,
2013-06-05 17:02:00,85.1,22.5,-100.00,SSW,192,2.0,9.0,10,0.00,,,0.03,225.0,meteohub,2013-06-05 21:02:00,
2013-06-05 17:07:00,84.9,19.8,-100.00,SSE,163,4.0,9.0,9,0.00,,,0.03,214.0,meteohub,2013-06-05 21:07:00,
2013-06-05 17:12:00,84.9,19.8,-100.00,SE,132,4.0,10.0,9,0.00,,,0.03,204.0,meteohub,2013-06-05 21:12:00,
2013-06-05 17:17:00,85.1,19.9,-100.00,South,173,3.0,10.0,9,0.00,,,0.03,197.0,meteohub,2013-06-05 21:17:00,
2013-06-05 17:22:00,85.1,19.9,-100.00,South,169,6.0,7.0,9,0.00,,,0.03,192.0,meteohub,2013-06-05 21:22:00,
2013-06-05 17:27:00,84.9,19.8,-100.00,SSE,164,0.0,8.0,9,0.00,,,0.03,190.0,meteohub,2013-06-05 21:27:00,
2013-06-05 17:32:00,84.7,19.6,-100.00,SSW,203,3.0,9.0,9,0.00,,,0.03,178.0,meteohub,2013-06-05 21:32:00,
2013-06-05 17:37:00,84.7,19.6,-100.00,South,184,4.0,10.0,9,0.00,,,0.03,163.0,meteohub,2013-06-05 21:37:00,
2013-06-05 17:42:00,84.6,19.6,-100.00,SW,225,5.0,10.0,9,0.00,,,0.03,155.0,meteohub,2013-06-05 21:42:00,
2013-06-05 17:47:00,84.6,19.6,-100.00,SSW,196,0.0,10.0,9,0.00,,,0.03,146.0,meteohub,2013-06-05 21:47:00,
2013-06-05 17:57:00,84.7,19.6,-100.00,SSW,196,3.0,10.0,9,0.00,,,0.03,130.0,meteohub,2013-06-05 21:57:00,
2013-06-05 18:02:00,84.6,19.6,-100.00,SE,132,1.0,9.0,9,0.00,,,0.03,118.0,meteohub,2013-06-05 22:02:00,
2013-06-05 18:07:00,84.4,19.4,-100.00,South,177,3.0,9.0,9,0.00,,,0.03,109.0,meteohub,2013-06-05 22:07:00,
2013-06-05 18:12:00,84.4,19.4,-100.00,South,169,4.0,7.0,9,0.00,,,0.03,93.0,meteohub,2013-06-05 22:12:00,
2013-06-05 18:17:00,84.2,19.2,-100.00,South,183,1.0,7.0,9,0.00,,,0.03,83.0,meteohub,2013-06-05 22:17:00,
2013-06-05 18:22:00,84.0,19.0,-100.00,SSW,202,1.0,7.0,9,0.00,,,0.03,72.0,meteohub,2013-06-05 22:22:00,
2013-06-05 18:27:00,84.0,19.0,-100.00,SSW,194,6.0,9.0,9,0.00,,,0.03,65.0,meteohub,2013-06-05 22:27:00,
2013-06-05 18:32:00,83.8,19.0,-100.00,SSE,149,4.0,9.0,9,0.00,,,0.03,60.0,meteohub,2013-06-05 22:32:00,
2013-06-05 18:37:00,84.0,19.0,-100.00,SSW,192,3.0,9.0,9,0.00,,,0.03,51.0,meteohub,2013-06-05 22:37:00,
2013-06-05 18:42:00,83.8,19.0,-100.00,South,184,0.0,9.0,9,0.00,,,0.03,47.0,meteohub,2013-06-05 22:42:00,
2013-06-05 18:52:00,83.7,18.9,-100.00,SE,144,3.0,7.0,9,0.00,,,0.03,46.0,meteohub,2013-06-05 22:52:00,
2013-06-05 18:57:00,83.5,21.2,-100.00,SSW,209,0.0,7.0,10,0.00,,,0.03,42.0,meteohub,2013-06-05 22:57:00,
2013-06-05 19:02:00,83.1,20.8,-100.00,South,190,5.0,7.0,10,0.00,,,0.03,37.0,meteohub,2013-06-05 23:02:00,
2013-06-05 19:07:00,82.9,20.8,-100.00,South,172,3.0,7.0,10,0.00,,,0.03,32.0,meteohub,2013-06-05 23:07:00,
2013-06-05 19:12:00,82.9,20.8,-100.00,SSE,161,3.0,7.0,10,0.00,,,0.03,28.0,meteohub,2013-06-05 23:12:00,
2013-06-05 19:22:00,82.8,20.7,-100.00,SSE,151,6.0,7.0,10,0.00,,,0.03,21.0,meteohub,2013-06-05 23:22:00,
2013-06-05 19:32:00,82.8,20.7,-100.00,SSE,150,3.0,11.0,10,0.00,,,0.03,16.0,meteohub,2013-06-05 23:32:00,
2013-06-05 19:37:00,82.8,20.7,-100.00,SW,226,6.0,7.0,10,0.00,,,0.03,14.0,meteohub,2013-06-05 23:37:00,
2013-06-05 19:42:00,82.6,20.5,-100.00,South,187,2.0,11.0,10,0.00,,,0.03,11.0,meteohub,2013-06-05 23:42:00,
2013-06-05 19:47:00,82.6,22.8,-100.00,SSW,194,3.0,11.0,11,0.00,,,0.03,7.0,meteohub,2013-06-05 23:47:00,
2013-06-05 19:52:00,82.8,20.7,-100.00,SSW,204,0.0,11.0,10,0.00,,,0.03,5.0,meteohub,2013-06-05 23:52:00,
2013-06-05 20:02:00,82.6,20.5,-100.00,SSE,159,1.0,10.0,10,0.00,,,0.03,0.0,meteohub,2013-06-06 00:02:00,
2013-06-05 20:07:00,82.6,20.5,-100.00,South,180,2.0,10.0,10,0.00,,,0.00,0.0,meteohub,2013-06-06 00:07:00,
2013-06-05 20:12:00,82.6,20.5,-100.00,South,182,6.0,11.0,10,0.00,,,0.00,0.0,meteohub,2013-06-06 00:12:00,
2013-06-05 20:17:00,82.8,20.7,-100.00,NNW,328,2.0,11.0,10,0.00,,,0.00,0.0,meteohub,2013-06-06 00:17:00,
2013-06-05 20:22:00,82.8,20.7,-100.00,South,188,5.0,10.0,10,0.00,,,0.00,0.0,meteohub,2013-06-06 00:22:00,
2013-06-05 20:27:00,82.8,20.7,-100.00,South,190,0.0,10.0,10,0.00,,,0.00,0.0,meteohub,2013-06-06 00:27:00,
2013-06-05 20:32:00,82.8,20.7,-100.00,SSW,200,4.0,10.0,10,0.00,,,0.00,0.0,meteohub,2013-06-06 00:32:00,
2013-06-05 20:37:00,82.9,20.8,-100.00,SW,225,2.0,11.0,10,0.00,,,0.00,0.0,meteohub,2013-06-06 00:37:00,
2013-06-05 20:42:00,82.9,20.8,-100.00,ESE,111,8.0,13.0,10,0.00,,,0.00,0.0,meteohub,2013-06-06 00:42:00,
2013-06-05 20:47:00,82.9,20.8,-100.00,SW,234,6.0,13.0,10,0.00,,,0.00,0.0,meteohub,2013-06-06 00:47:00,
2013-06-05 20:52:00,82.9,20.8,-100.00,SSE,165,7.0,13.0,10,0.00,,,0.00,0.0,meteohub,2013-06-06 00:52:00,
2013-06-05 20:57:00,82.8,20.7,-100.00,SSE,160,3.0,13.0,10,0.00,,,0.00,0.0,meteohub,2013-06-06 00:57:00,
2013-06-05 21:02:00,82.9,20.8,-100.00,SE,144,6.0,13.0,10,0.00,,,0.00,0.0,meteohub,2013-06-06 01:02:00,
2013-06-05 21:07:00,82.8,20.7,-100.00,South,177,3.0,13.0,10,0.00,,,0.00,0.0,meteohub,2013-06-06 01:07:00,
2013-06-05 21:17:00,82.9,20.8,-100.00,SE,125,6.0,9.0,10,0.00,,,0.00,0.0,meteohub,2013-06-06 01:17:00,
2013-06-05 21:22:00,82.9,20.8,-100.00,SSW,200,4.0,11.0,10,0.00,,,0.00,0.0,meteohub,2013-06-06 01:22:00,
2013-06-05 21:32:00,83.1,20.8,-100.00,SSW,193,4.0,11.0,10,0.00,,,0.00,0.0,meteohub,2013-06-06 01:32:00,
2013-06-05 21:37:00,83.1,20.8,-100.00,SSW,198,2.0,11.0,10,0.00,,,0.00,0.0,meteohub,2013-06-06 01:37:00,
2013-06-05 21:47:00,82.9,20.8,-100.00,South,170,4.0,9.0,10,0.00,,,0.00,0.0,meteohub,2013-06-06 01:47:00,
2013-06-05 21:52:00,82.9,20.8,-100.00,South,188,1.0,9.0,10,0.00,,,0.00,0.0,meteohub,2013-06-06 01:52:00,
2013-06-05 21:57:00,83.3,21.0,-100.00,South,191,6.0,9.0,10,0.00,,,0.00,0.0,meteohub,2013-06-06 01:57:00,
2013-06-05 22:02:00,82.9,20.8,-100.00,SSE,161,4.0,7.0,10,0.00,,,0.00,0.0,meteohub,2013-06-06 02:02:00,
2013-06-05 22:07:00,82.9,20.8,-100.00,SSW,209,3.0,7.0,10,0.00,,,0.00,0.0,meteohub,2013-06-06 02:07:00,
2013-06-05 22:17:00,83.1,20.8,-100.00,SSW,198,6.0,11.0,10,0.00,,,0.00,0.0,meteohub,2013-06-06 02:17:00,
2013-06-05 22:27:00,82.9,20.8,-100.00,SE,142,3.0,10.0,10,0.00,,,0.00,0.0,meteohub,2013-06-06 02:27:00,
2013-06-05 22:32:00,82.9,20.8,-100.00,SSW,210,4.0,10.0,10,0.00,,,0.00,0.0,meteohub,2013-06-06 02:32:00,
2013-06-05 22:37:00,83.1,20.8,-100.00,South,177,6.0,11.0,10,0.00,,,0.00,0.0,meteohub,2013-06-06 02:37:00,
2013-06-05 22:42:00,82.9,20.8,-100.00,SSW,196,6.0,11.0,10,0.00,,,0.00,0.0,meteohub,2013-06-06 02:42:00,
2013-06-05 22:47:00,82.8,20.7,-100.00,SSW,209,9.0,11.0,10,0.00,,,0.00,0.0,meteohub,2013-06-06 02:47:00,
2013-06-05 22:52:00,82.9,20.8,-100.00,South,191,1.0,11.0,10,0.00,,,0.00,0.0,meteohub,2013-06-06 02:52:00,
2013-06-05 22:57:00,82.8,20.7,-100.00,SSE,149,9.0,11.0,10,0.00,,,0.00,0.0,meteohub,2013-06-06 02:57:00,
2013-06-05 23:07:00,82.8,20.7,-100.00,South,185,3.0,11.0,10,0.00,,,0.00,0.0,meteohub,2013-06-06 03:07:00,
2013-06-05 23:12:00,82.6,20.5,-100.00,South,187,4.0,11.0,10,0.00,,,0.00,0.0,meteohub,2013-06-06 03:12:00,
2013-06-05 23:17:00,82.2,20.3,-100.00,SSE,150,0.0,11.0,10,0.00,,,0.00,0.0,meteohub,2013-06-06 03:17:00,
2013-06-05 23:22:00,82.2,22.5,-100.00,ESE,103,2.0,11.0,11,0.00,,,0.00,0.0,meteohub,2013-06-06 03:22:00,
2013-06-05 23:27:00,82.2,22.5,-100.00,SSW,198,3.0,8.0,11,0.00,,,0.00,0.0,meteohub,2013-06-06 03:27:00,
2013-06-05 23:32:00,82.2,22.5,-100.00,SW,222,4.0,8.0,11,0.00,,,0.00,0.0,meteohub,2013-06-06 03:32:00,
2013-06-05 23:37:00,82.2,22.5,-100.00,South,176,6.0,10.0,11,0.00,,,0.00,0.0,meteohub,2013-06-06 03:37:00,
2013-06-05 23:42:00,82.2,22.5,-100.00,SSE,152,4.0,10.0,11,0.00,,,0.00,0.0,meteohub,2013-06-06 03:42:00,
2013-06-05 23:52:00,82.4,20.3,-100.00,South,189,8.0,12.0,10,0.00,,,0.00,0.0,meteohub,2013-06-06 03:52:00,
2013-06-05 23:57:00,82.4,20.3,-100.00,SE,132,5.0,10.0,10,0.00,,,0.00,0.0,meteohub,2013-06-06 03:57:00,